Regional Weather Roundup
Issued by NWS

Home | Current Version | Previous Version | Text Only | Print | Product List | Glossary Off
Versions: 1 2 3 4 5 6 7 8 9 10 11 12 13 14 15 16 17 18 19 20 21 22 23 24 25 26 27 28 29 30 31 32 33 34 35 36 37 38 39 40 41 42 43 44 45 46 47 48 49 50

394
ASUS45 KCYS 030110
RWRWY

WYOMING REGIONAL WEATHER ROUNDUP
NATIONAL WEATHER SERVICE CHEYENNE WY
700 PM MDT MON MAY 02 2016

NOTE:  "FAIR" INDICATES FEW OR NO CLOUDS BELOW 12,000 FEET
WITH NO SIGNIFICANT WEATHER AND/OR OBSTRUCTIONS TO VISIBILITY.

WYZ001-030200-
YELLOWSTONE NATIONAL PARK

CITY           SKY/WX    TMP DP  RH WIND       PRES   REMARKS
LK YELLOWSTONE   N/A     50  14  23 CALM      30.26S
W YELLOWSTONE  NOT AVBL

$$
WYZ002>013-054>058-071-098>099-030200-
NORTHERN WYOMING

CITY           SKY/WX    TMP DP  RH WIND       PRES   REMARKS
JACKSON        SUNNY     61  18  18 W12       30.18F
CODY           FAIR      63  27  25 N10       30.15S
GREYBULL       FAIR      70  20  15 NW15      30.07F
WORLAND        FAIR      66  26  22 CALM      30.10S
SHERIDAN       FAIR      63  35  35 NW15      30.12R
BUFFALO          N/A    N/A N/A N/A MISG      30.14R
GILLETTE       FAIR      58  35  42 N12       30.11S
HULETT         FAIR      59  34  38 NW15G21   30.08F
NEWCASTLE      FAIR      59  28  31 NW14G22   30.07S

$$
WYZ014>020-022>026-101>103-030200-
CENTRAL WYOMING

CITY           SKY/WX    TMP DP  RH WIND       PRES   REMARKS
BIG PINEY      FAIR      59   4  11 SW5       30.20S
PINEDALE       FAIR      57  10  15 SW6       30.19S
DUBOIS         FAIR      57  12  17 SE13      30.19R
LANDER         FAIR      58  27  30 E5        30.15R
RIVERTON       FAIR      60  30  32 E6        30.16S
CASPER         FAIR      54  30  40 N9        30.14R
DOUGLAS        FAIR      59  29  31 N14       30.11R

$$
WYZ021-027>030-104>119-030200-
SOUTHERN WYOMING

CITY           SKY/WX    TMP DP  RH WIND       PRES   REMARKS
EVANSTON       FAIR      57  13  17 N7        30.22S
KEMMERER         N/A     55   9  15 NW5       30.22F
FORT BRIDGER   CLEAR     57  14  18 NE3       30.25S
ROCK SPRINGS   FAIR      53  12  19 NW5       30.21F
DIXON          FAIR      58  20  22 NW7       30.21S
RAWLINS        FAIR      55   3  12 NW14      30.19R
SARATOGA       FAIR      52  10  19 W8G18     30.20S
LARAMIE        FAIR      47  24  40 NW14      30.16S
CHEYENNE       FAIR      54  20  26 NW18G28   30.11F
TORRINGTON     CLOUDY    61  26  26 N14G30    30.02S
PINE BLUFFS    FAIR      55  27  33 NW13G22   30.09S

$$




USA.gov is the U.S. government's official web portal to all federal, state and local government web resources and services.